Location: J�zef�w
(51.8959°N, 22.2504°E)
Time: 13:54:57
(UTC+00:00)

Daily predictions for brighter satellites

Satellite Brightness Start Highest point End
(mag) Time Altitude Azimuth Time Altitude Azimuth Time Altitude Azimuth
Meteor 2-10 Rocket 4.1 19:29:34 10° NNW 19:34:33 57° W 19:39:39 10° S
USA 245 3.4 19:32:06 10° S 19:35:29 77° WSW 19:39:50 10° NNW
Cosmos 1400 Rocket 2.8 19:33:04 10° NNW 19:37:06 89° WSW 19:41:03 10° S
Cosmos 1758 Rocket 3.6 19:34:18 10° S 19:38:47 78° E 19:43:19 10° NNE
SPOT 5 3.2 19:35:31 10° SSE 19:40:26 58° ENE 19:45:07 10° N
Cosmos 2181 Rocket 4.2 19:36:14 10° N 19:42:33 62° ENE 19:48:45 10° SSE
Lacrosse 5 rocket 2.6 19:39:06 10° W 19:43:13 45° NNW 19:47:07 10° ENE
Spot 2 Rocket 3.8 19:38:16 10° S 19:43:21 70° WSW 19:48:29 10° NNW
BREEZE-M DEB (TANK) 4.3 19:41:51 10° S 19:43:39 12° SSE 19:44:56 10° SE
ATLAS 5 CENTAUR R/B 3.5 19:43:16 10° W 19:45:47 25° NNW 19:47:36 10° NNE
Cosmos 1745 Rocket 4.3 19:42:36 10° SSW 19:48:48 74° WNW 19:55:07 10° N
Landsat 7 4.2 19:44:26 10° S 19:49:09 66° WSW 19:53:55 10° NNW
USA 267 3.4 19:48:31 10° ESE 19:55:05 83° NNE 20:01:42 10° WNW
CZ-4C R/B 4.4 19:50:36 10° NW 19:56:04 31° N 20:02:26 10° ENE
SPOT 1/Viking Rocket 3.8 19:52:24 10° S 19:57:32 69° WSW 20:02:42 10° NNW
Alouette 2 Rocket 4.0 19:56:37 10° NNW 20:00:17 58° WSW 20:05:00 10° S
Cosmos 1953 Rocket 3.5 19:57:35 10° S 20:01:53 74° E 20:06:14 10° NNE
Cosmos 2322 Rocket 3.3 19:58:37 10° SW 20:04:03 49° NW 20:09:32 10° NNE
NOSS 7 (D) 4.1 20:03:15 10° SW 20:06:00 67° NW 20:08:40 10° NE
Cosmos 2084 3.6 20:02:57 10° NW 20:07:25 79° SW 20:11:33 12° SE
Cosmos 1842 Rocket 3.9 20:03:40 10° N 20:07:58 52° ENE 20:11:52 12° SSE
Cosmos 1328 4.2 20:04:21 10° SSW 20:08:18 65° WNW 20:12:17 10° N
SAR-Lupe-2 3.6 20:04:55 10° NNE 20:08:33 89° W 20:12:08 10° SSW
Cosmos 1455 4.3 20:07:54 10° NW 20:11:04 25° W 20:14:14 10° SW
Cosmos 1825 Rocket 4.3 20:13:19 10° SSW 20:17:42 56° WNW 20:22:07 10° N
ATLAS CENTAUR R/B 1.3 20:15:38 10° NW 20:19:19 60° SW 20:22:16 14° SSE
COSMOS 2428 2.8 20:18:10 10° S 20:23:41 57° ESE 20:29:15 10° NE
NOSS 3-4 (A) 4.0 20:17:45 10° NW 20:24:30 69° NE 20:32:02 10° ESE
NOSS 3-4 (C) 4.1 20:17:51 10° NW 20:24:37 69° NE 20:32:08 10° ESE
Cosmos 1825 4.4 20:23:33 10° ESE 20:25:20 13° E 20:27:08 10° NE
SL-24 R/B - RUBIN 2 4.5 20:20:42 10° SW 20:26:51 81° SE 20:33:35 10° NE
Cosmos 2322 3.8 20:21:52 10° SSW 20:27:37 89° WNW 20:33:23 10° NNE
Meteor 1-27 4.5 20:24:25 10° NNW 20:30:08 72° W 20:35:46 11° S
Cosmos 1869 3.3 20:26:38 10° N 20:30:37 71° ENE 20:33:50 15° SSE
Terra 2.1 20:31:40 12° S 20:36:07 66° WSW 20:40:53 10° NNW
NOSS 3-3 (A) 4.0 20:30:29 10° SSW 20:36:18 62° SE 20:42:55 10° NE
NOSS 3-3 (C) 4.0 20:30:36 10° SSW 20:36:25 61° SE 20:43:02 10° NE
Cosmos 2237 Rocket 3.0 20:33:12 13° SSE 20:37:26 32° ESE 20:42:27 10° NE
Atlas Centaur 2 4.4 20:37:55 10° S 20:38:17 10° S 20:38:39 10° S
Cosmos 2333 4.4 20:33:47 10° SW 20:39:26 79° WNW 20:45:12 10° NNE
Cosmos 2219 Rocket 2.1 20:34:10 10° SSW 20:39:45 80° ESE 20:45:24 10° NNE
Cosmos 2360 Rocket 3.3 20:36:31 10° SW 20:41:58 47° NW 20:47:27 10° NNE
Cosmos 1538 Rocket 4.0 20:37:07 10° SSW 20:42:29 85° ESE 20:47:51 10° NNE
Meteor 2-2 Rocket 4.3 20:42:22 10° NNW 20:48:15 84° W 20:53:04 15° S
Cosmos 2184 Rocket 4.0 20:42:26 11° S 20:48:26 75° E 20:54:45 10° NNE
Thor Agena Rocket 4.3 20:44:37 10° NNE 20:49:21 36° E 20:52:43 17° SSE
Cosmos 2333 Rocket 2.3 20:43:53 10° SSW 20:49:36 85° WNW 20:55:23 10° NNE
Cosmos 1315 Rocket 3.9 20:46:44 10° NNW 20:50:35 40° W 20:54:13 11° SSW
ATLAS 2AS CENTAUR R/B 2.9 20:44:47 10° NW 20:52:33 84° NE 20:59:01 13° SE
Cosmos 2221 2.9 20:54:44 10° NNW 20:59:04 60° W 21:02:29 16° S
Cosmos 1371 Rocket 4.2 20:54:35 10° NNW 20:59:51 66° ENE 21:03:55 17° SE
GEOS 3 Rocket 4.3 20:55:33 10° NE 21:00:53 62° NW 21:06:12 10° WSW
USA 215 3.2 20:57:26 10° ENE 21:04:02 74° SSE 21:10:35 10° SW
Iridium 2 3.9 21:01:27 10° N 21:05:14 57° E 21:07:33 22° SSE
EO 1 Del DPAF 3.9 21:04:30 10° NNE 21:08:03 39° E 21:10:00 22° SSE
Cosmos 2278 Rocket 2.5 21:03:26 10° NW 21:09:01 59° WSW 21:13:09 18° S
Cosmos 1892 2.6 21:07:02 19° S 21:09:41 83° E 21:13:30 10° NNE
Cosmos 2297 4.3 21:04:41 10° NNW 21:10:22 54° NE 21:15:17 13° SE
Cosmos 2112 Rocket 4.4 21:08:06 17° S 21:11:56 50° ESE 21:17:07 10° NNE
ATLAS 5 CENTAUR R/B 3.0 21:10:07 10° WSW 21:14:16 42° NNW 21:19:03 10° NE
Cosmos 1606 3.8 21:11:23 10° N 21:14:58 34° ENE 21:17:19 18° SE
Aureole 2 Rocket 3.0 21:12:52 10° N 21:15:30 37° ENE 21:17:00 21° ESE
Cosmos 158 Rocket 4.0 21:13:11 18° S 21:16:38 55° ESE 21:21:27 10° NNE
Cosmos 1943 Rocket 3.5 21:11:59 10° NNW 21:17:13 36° NE 21:22:25 10° ESE
SL-16 R/B 3.3 21:18:56 18° SSE 21:21:48 28° ESE 21:26:32 10° NE
Lacrosse 5 rocket 2.5 21:19:00 10° WNW 21:22:57 43° N 21:26:42 10° E
Spot 4 3.8 21:20:00 21° SSE 21:23:15 86° WSW 21:28:04 10° NNW
Cosmos 2056 Rocket 3.6 21:18:23 10° NNW 21:23:50 86° ENE 21:27:39 20° SSE
Nadezhda 3 Rocket 4.2 21:17:56 10° NNW 21:24:18 75° W 21:29:11 18° S
Cosmos 2058 3.2 21:25:00 16° SSW 21:28:14 67° WNW 21:32:22 10° N
Cosmos 2154 Rocket 4.0 21:23:04 15° S 21:28:18 87° WNW 21:34:34 10° N
Cosmos 1408 2.4 21:29:05 24° S 21:31:10 90° WNW 21:34:46 10° N
Cosmos 2341 Rocket 4.2 21:26:53 19° SSE 21:31:18 60° E 21:37:25 10° NNE
In-Cosmos 22 Rocket 4.4 21:29:55 12° SSW 21:34:45 65° WNW 21:40:05 10° N
USA 267 3.7 21:34:05 19° SSE 21:38:29 44° SW 21:44:44 10° WNW
Cosmos 1076 Rocket 3.9 21:36:08 16° SSW 21:39:28 59° WNW 21:43:43 10° N
Cosmos 1680 Rocket 3.5 21:35:42 14° SSW 21:40:17 90° E 21:45:39 10° NNE
CZ-4C R/B 3.6 21:39:34 10° NW 21:46:04 51° NNE 21:53:44 10° ESE
EO 1 Delta rocket 4.2 21:43:18 10° N 21:48:16 82° WNW 21:52:50 18° SSW
COSMOS 2455 3.2 21:43:34 10° NW 21:49:35 63° NE 21:55:19 11° SE
Cosmos 2151 2.9 21:47:18 24° S 21:49:50 84° E 21:54:08 10° NNE
SL-8 Rocket 4.1 21:46:21 21° SSE 21:50:31 63° E 21:56:36 10° NNE
Cosmos 1452 Rocket 3.9 21:45:38 10° NNW 21:50:52 59° ENE 21:54:48 17° SE
Helios 1A 3.6 21:48:16 20° SE 21:50:52 47° ENE 21:54:54 10° N
Cosmos 1727 Rocket 4.4 21:52:40 10° N 21:58:50 58° ENE 22:03:21 19° SSE
Cosmos 1825 2.4 21:58:08 23° SSW 22:00:20 64° WNW 22:04:07 10° N
Cosmos 1933 3.3 21:56:18 10° N 22:00:20 79° ENE 22:02:24 28° SSE
ALOS 2 2.6 21:58:03 26° S 22:00:31 73° WSW 22:04:56 10° NNW
Cosmos 1151 Rocket 3.0 21:56:30 10° N 22:00:53 85° E 22:03:13 27° SSE
Cosmos 1408 Rocket 4.1 21:58:51 24° SSE 22:01:03 45° E 22:05:17 10° NNE
Cosmos 1340 3.3 21:59:38 27° SSE 22:01:10 42° E 22:04:45 10° NNE
Cosmos 2369 Rocket 3.0 21:56:14 10° NNW 22:01:41 48° NE 22:07:04 10° SE
Cosmos 1980 4.0 21:57:17 10° SW 22:02:54 68° NW 22:08:34 10° NNE
APEX 2.6 22:01:24 10° NNW 22:04:09 62° NE 22:05:07 34° SE
IRIDIUM 103 4.4 22:01:14 24° S 22:04:28 74° E 22:09:41 10° N
Cosmos 44 3.3 22:05:15 27° S 22:07:16 47° ESE 22:11:33 10° NE
COSMOS 2428 4.3 22:03:06 10° WSW 22:08:16 35° NW 22:13:28 10° NNE
Cosmos 371 Rocket 3.3 22:04:00 10° NNW 22:08:54 83° WSW 22:11:47 25° SSE
GP-B 3.1 22:04:26 10° N 22:08:54 85° W 22:11:23 26° S
NOSS 3-4 (A) 4.5 22:08:52 10° NW 22:15:17 40° WSW 22:19:46 21° S
NOSS 3-4 (C) 4.5 22:08:57 10° NW 22:15:23 40° WSW 22:19:55 21° S
Helios 1B rocket 4.1 22:13:58 10° NE 22:17:12 22° E 22:19:04 16° SE
Nimbus 7 Rocket 4.4 22:12:02 10° NNE 22:18:01 83° WNW 22:22:22 19° SSW
SL-4 R/B 0.6 22:19:54 57° WNW 22:19:54 57° WNW 22:21:49 10° NNW
Cosmos 2237 Rocket 2.8 22:15:40 10° SW 22:21:16 55° NW 22:26:54 10° NNE
Cosmos 1782 3.1 22:17:34 10° N 22:21:30 58° ENE 22:23:34 26° SSE
Genesis I 3.4 22:18:36 13° SW 22:21:59 69° NW 22:25:53 10° NE
IRIDIUM 106 4.3 22:19:31 24° S 22:22:47 82° W 22:28:02 10° N
CREW DRAGON DEMO-1 DEB 3.0 22:22:53 42° S 22:23:19 46° SSE 22:26:18 10° E
Cosmos 2344 3.6 22:16:42 10° SW 22:24:10 85° SE 22:32:35 10° NE
Cosmos 2219 Rocket 4.2 22:19:38 10° W 22:24:21 27° NW 22:29:07 10° NNE
Cosmos 1346 Rocket 3.1 22:28:04 29° SSE 22:29:48 54° E 22:33:39 10° NNE
CZ-2D R/B 4.5 22:31:41 10° ENE 22:33:17 11° E 22:34:54 10° E
Cosmos 2333 Rocket 4.4 22:30:07 10° W 22:34:43 24° NW 22:39:22 10° NNE
RESURS DK-1 3.0 22:35:53 10° NNW 22:39:58 54° NE 22:43:24 14° SE
Cosmos 1515 Rocket 3.6 22:36:41 10° NNW 22:41:01 67° W 22:43:15 28° S
CZ-4 R/B 4.3 22:37:30 10° NNE 22:42:02 47° E 22:44:35 24° SSE
BREEZE-M DEB (TANK) 3.7 22:40:43 10° W 22:41:22 13° WSW 22:41:22 13° WSW
ATLAS 2AS CENTAUR R/B 3.8 22:36:30 10° NW 22:42:47 30° WSW 22:46:25 19° SSW
EP 3 4.5 22:42:47 40° WNW 22:43:00 43° NW 22:44:57 10° NE
USA 215 3.7 22:40:33 10° ENE 22:47:02 64° NNW 22:53:30 10° W
Cosmos 1766 Rocket 4.4 22:44:24 19° SW 22:47:14 42° WNW 22:51:27 10° N
Aureole 2 Rocket 4.3 22:47:19 10° WNW 22:48:51 14° WSW 22:48:59 14° WSW
Gbstr 26 Del rocket 3.4 22:49:28 30° S 22:50:27 35° SSE 22:54:24 10° E
Cosmos 1606 4.4 22:47:23 10° NW 22:50:33 24° W 22:52:19 17° SW
Cosmos 2278 Rocket 4.4 22:50:46 10° W 22:51:54 11° W 22:53:02 10° WSW
Cosmos 304 Rocket 3.8 22:50:30 10° NNW 22:55:19 66° WSW 22:58:03 25° S
Cosmos 2218 Rocket 4.4 22:50:54 19° SSW 22:55:33 59° WNW 23:01:49 10° N
Cosmos 2228 Rocket 3.1 22:52:06 10° NNW 22:56:44 83° W 22:59:19 26° S
Cosmos 1943 4.1 22:56:06 20° SSE 22:59:17 36° ESE 23:04:26 10° NE
ATLAS 5 CENTAUR R/B 4.5 22:56:21 10° WNW 23:00:09 23° N 23:04:25 10° NE
Cosmos 1862 4.0 22:58:33 24° SSE 23:00:32 44° E 23:04:21 10° NNE
Cosmos 1943 Rocket 2.4 22:55:43 10° NW 23:01:15 55° WSW 23:04:40 23° S
Cosmos 2366 rocket 4.4 22:56:35 18° SSW 23:01:16 57° WNW 23:07:32 10° N
Landsat 4 3.7 22:58:17 10° NNE 23:02:05 78° WNW 23:03:59 28° SSW
Lacrosse 5 rocket 1.0 22:58:21 10° WNW 23:02:22 80° SSW 23:06:09 10° SE
CRYOSAT 2 4.4 22:57:37 10° N 23:02:31 75° E 23:05:26 24° S
Cosmos 1633 2.7 23:01:11 30° SSW 23:02:50 67° WNW 23:06:27 10° N
SL-16 R/B 2.6 23:00:46 15° SW 23:05:32 63° NW 23:11:13 10° NNE
Cosmos 1821 Rocket 4.0 23:05:52 22° S 23:10:00 81° E 23:16:07 10° NNE
Cosmos 2123 Rocket 4.2 23:04:15 10° N 23:10:28 68° ENE 23:15:27 16° SSE
Cosmos 1743 Rocket 3.7 23:12:36 25° SSW 23:15:01 65° WNW 23:19:23 10° N
Sich 1 3.6 23:15:28 22° SSE 23:17:58 50° E 23:22:11 10° NNE
Cosmos 1331 Rocket 4.0 23:14:32 10° NNW 23:19:52 75° WSW 23:23:39 19° SSE
Cosmos 1048 Rocket 4.0 23:19:32 22° SSW 23:23:05 85° WNW 23:28:23 10° NNE
Meteor 1-29 3.0 23:24:15 10° NNE 23:27:37 66° ESE 23:29:10 29° S
Cosmos 405 4.4 23:24:54 10° NW 23:27:54 26° W 23:29:08 21° SW
Meteor 1-10 Rocket 4.3 23:26:31 10° NNW 23:32:04 67° W 23:35:50 21° S
SL-4 R/B 3.5 23:32:31 13° SE 23:33:09 13° ESE 23:34:39 10° E
Iridium 4 Rocket 4.4 23:28:48 14° SSE 23:33:38 51° E 23:39:04 10° NNE
PSLV R/B 3.8 23:29:48 10° N 23:33:58 60° WNW 23:36:34 22° SW
Cosmos 292 Rocket 4.1 23:29:23 10° NNW 23:34:12 65° ENE 23:38:56 10° SE
Meteor 2-6 Rocket 4.4 23:29:06 10° NNW 23:34:27 54° W 23:37:54 21° SSW
Cosmos 389 Rocket 2.6 23:31:21 10° N 23:34:54 68° ENE 23:37:05 21° SSE
CZ-4C R/B 2.9 23:28:05 10° NW 23:35:05 66° SW 23:43:10 10° SSE
COSMOS 2455 3.7 23:29:55 10° NW 23:35:14 33° WSW 23:38:24 20° SSW
Cosmos 1110 Rocket 4.3 23:31:48 10° NNW 23:36:54 51° WSW 23:40:16 21° S
SL-16 R/B 2.9 23:31:59 10° SSE 23:38:08 67° ENE 23:44:22 10° NNW
Cosmos 1605 Rocket 4.5 23:34:31 16° SSE 23:39:34 57° E 23:45:43 10° NNE
Cosmos 1603 3.7 23:36:25 21° SSW 23:40:22 81° ESE 23:46:08 10° NNE
IRAS Rocket 4.2 23:37:09 15° SSE 23:41:48 89° WSW 23:47:20 10° NNW
Cosmos 1269 Rocket 4.2 23:39:58 21° S 23:43:30 62° ESE 23:48:43 10° NNE
Resurs 1-4 Rocket 3.0 23:39:29 10° NNE 23:44:31 40° E 23:48:45 14° SSE
Cosmos 2369 Rocket 2.9 23:40:30 10° NW 23:45:36 37° WSW 23:48:49 20° SSW
Cosmos 1666 Rocket 3.7 23:44:14 21° S 23:47:08 68° E 23:51:31 10° NNE
SeaSat 1 3.1 23:43:17 10° NE 23:48:02 45° ESE 23:51:20 19° S
Cosmos 44 4.4 23:44:34 10° WSW 23:48:37 36° NW 23:52:49 10° NNE
Meteor 2-20 Rocket 4.4 23:43:57 10° NNW 23:50:07 85° W 23:55:17 15° S
ISS -2.5 23:51:01 23° SSE 23:51:40 25° SSE 23:54:29 10° E
Helios 1B rocket 3.1 23:48:44 10° N 23:52:42 46° WNW 23:55:23 19° SW
ADEOS II 4.0 23:51:36 10° NE 23:55:41 22° E 23:59:44 10° SE
